Skip Page Navigation
NASA JPL Caltech
NASA Logo - Jet Propulsion Laboratory + View the NASA Portal
+ Center for Near-Earth Object Studies
JPL Home Earth Solar System Stars & Galaxies Technology
JPL Solar System Dynamics
BODIES ORBITS EPHEMERIDES TOOLS PHYSICAL DATA DISCOVERY FAQ SITE MAP
IMPORTANT: The SSD Announcement email list is now available. Major changes are coming in the near future, including possible hostname and/or URL changes. To be notified of such changes, subscribe to this email list.

Please visit this page for more details.


JPL Small-Body Database Browser
Search: [ help ]  
243482 (2009 TY14)
Classification: Main-belt Asteroid          SPK-ID: 2243482
Ephemeris | Orbit Diagram | Orbital Elements | Mission Design | Physical Parameters | Discovery Circumstances | Close-Approach Data ]

[ show orbit diagram ]
Orbital Elements at Epoch 2458600.5 (2019-Apr-27.0) TDB
Reference: JPL 13 (heliocentric ecliptic J2000)
 Element Value Uncertainty (1-sigma)   Units 
e .1237886290074625 5.4119e-08  
a 3.169278137420355 5.2118e-08 au
q 2.776957541845765 1.8065e-07 au
i 2.685107471463053 7.8049e-06 deg
node 132.8974291542063 0.00013287 deg
peri 279.2294646728859 0.00013859 deg
M 233.5072253046582 3.4852e-05 deg
tp 2459324.606052257763
(2021-Apr-20.10605226)
0.00019969 TDB
period 2060.814773338941
5.64
5.0834e-05
1.392e-07
d
yr
n .1746881886996211 4.309e-09 deg/d
Q 3.561598732994945 5.8569e-08 au
  Orbit Determination Parameters
   # obs. used (total)      203  
   data-arc span      5324 days (14.58 yr)  
   first obs. used      2003-09-18  
   last obs. used      2018-04-16  
   planetary ephem.      DE431  
   SB-pert. ephem.      SB431-N16  
   condition code      0  
   norm. resid. RMS      .60719  
   source      ORB  
   producer      Otto Matic  
   solution date      2018-Oct-04 09:33:09  

Additional Information
 Earth MOID = 1.78909 au 
 Jupiter MOID = 1.79319 au 
 T_jup = 3.189 
[ show covariance matrix ]

Ephemeris | Orbit Diagram | Orbital Elements | Mission Design | Physical Parameters | Discovery Circumstances | Close-Approach Data ]

Physical Parameter Table
Parameter Symbol Value Units Sigma Reference Notes
absolute magnitude H 15.8   n/a MPO446287  
diameter diameter 3.391 km 0.516 urn:nasa:pds:neowise_diameters_albedos::2.0[mainbelt] (http://adsabs.harvard.edu/abs/2011ApJ...741...68M)  
geometric albedo albedo 0.074   0.018 urn:nasa:pds:neowise_diameters_albedos::2.0[mainbelt] (http://adsabs.harvard.edu/abs/2011ApJ...741...68M)  

243482 (2009 TY14)          Discovered 2009-Oct-12 by La Sagra at La Sagra
Reference: 20100626/Numbers.arcLast Updated: 2010-06-28

[ hide close-approach data ]
Close-Approach Data   ...sorted by Date/Time (TDB)
Date/Time (TDB) Time Uncertainty
(days_HH:MM)
Body Nominal Distance (au) Minimum Distance (au) Maximum Distance (au) V-relative (km/s) V-infinity (km/s) JD (TDB) Time Uncertainty (minutes) Semi-major axis (km) Semi-minor axis (km) range-LOV angle (deg) N-sigma BP Orbit Ref. Reference Modified
1901-Apr-21 12:55 00:08 Jupiter 1.83614244991724 1.8361413030589 1.83614359677496 2.51554809677351 2.32494544684185 2415496.038397387 7.60013053701393 109.172632164938 14.5130572887021 -85.8324227686676 958760.199413038 T 13 CATAB v2.0e-lin.ifort 2018-Oct-04 09:33:11 2018-Dec-17 23:05
1911-Dec-04 07:07 00:07 Jupiter 1.82381891015494 1.82381814136467 1.82381967894708 2.17227375497938 1.94677381600663 2419374.796694362 6.65499215745649 193.858826393593 15.7213250887082 85.5159048052359 2020404.19988629 T 13 CATAB v2.0e-lin.ifort 2018-Oct-04 09:33:11 2018-Dec-17 23:05
1922-Jul-25 00:12 00:06 Jupiter 1.94002286069355 1.94002145271407 1.94002426868317 2.52695656427224 2.34782892882512 2423260.508044757 5.76260410692269 279.682559465311 16.0988712895951 84.7806979115727 1953663.88384044 T 13 CATAB v2.0e-lin.ifort 2018-Oct-04 09:33:11 2018-Dec-17 23:05
1997-Apr-11 08:34 00:01 Jupiter 1.92089245568737 1.92089154529525 1.92089336607928 3.24676983071162 3.10799117449644 2450549.857233196 1.29487663548771 70.8505818039704 29.7883819443456 81.2153230539699 1556022.66600544 T 13 CATAB v2.0e-lin.ifort 2018-Oct-04 09:33:11 2018-Dec-17 23:05
2007-Nov-18 06:39 < 00:01 Jupiter 1.81107675919235 1.81107604682074 1.81107747156355 2.35079266047783 2.14262598311284 2454422.777015028 0.680821904966069 82.483052574176 7.44882223986853 -88.3610270035002 1609550.28644733 T 13 CATAB v2.0e-lin.ifort 2018-Oct-04 09:33:11 2018-Dec-17 23:05
2018-Jul-03 03:31 < 00:01 Jupiter 1.83922721399718 1.83922664149196 1.83922778650219 2.19877949978329 1.978273944981 2458302.646584493 0.693285318083076 95.1402835393729 8.70561708711683 -87.3183721044808 2115007.27429161 T 13 CATAB v2.0e-lin.ifort 2018-Oct-04 09:33:11 2018-Dec-17 23:05
2029-Feb-21 00:38 00:01 Jupiter 1.98497589921107 1.98497497071225 1.98497682771012 2.71373626471761 2.55165259445443 2462188.526404374 1.33547625192507 100.692403989282 22.2573554541147 81.2152805012951 1870229.45318096 T 13 CATAB v2.0e-lin.ifort 2018-Oct-04 09:33:11 2018-Dec-17 23:05
2103-Nov-06 05:53 00:06 Jupiter 1.87268665579231 1.87268512647746 1.87268818511077 2.94766900162058 2.79000820260536 2489473.745284232 6.02361191972974 192.028721695236 25.4427768137874 82.7610173598721 1341679.00626454 T 13 CATAB v2.0e-lin.ifort 2018-Oct-04 09:33:11 2018-Dec-17 23:05
2114-Jun-14 04:13 00:07 Jupiter 1.79634923765711 1.79634859918664 1.79634987612727 2.2327285217617 2.01047950259735 2493346.675512151 6.7420213248338 88.4062637981401 38.0612414819143 -89.1217419748294 1250603.08871708 T 13 CATAB v2.0e-lin.ifort 2018-Oct-04 09:33:11 2018-Dec-17 23:05
2125-Jan-26 14:17 00:07 Jupiter 1.8667599253709 1.86675814925001 1.86676170150325 2.27721953845433 2.06839310574547 2497226.095464348 7.44649756455955 290.444909768997 17.7276870504842 83.1116729421944 1879815.02057734 T 13 CATAB v2.0e-lin.ifort 2018-Oct-04 09:33:11 2018-Dec-17 23:05
2199-Oct-25 08:03 00:12 Jupiter 1.98103470443669 1.98103110286039 1.98103830606784 3.83942644183712 3.72640094143798 2524525.835087696 12.2641804439137 572.824479518653 33.2083312265072 76.5141388899403 1719108.33179658 T 13 CATAB v2.0e-lin.ifort 2018-Oct-04 09:33:11 2018-Dec-17 23:05

Alternate Designations
 2009 TY14 = 2006 EB74 = 2010 AY67 
Ephemeris | Orbit Diagram | Orbital Elements | Mission Design | Physical Parameters | Discovery Circumstances | Close-Approach Data ]
ABOUT SSD CREDITS/AWARDS PRIVACY/COPYRIGHT GLOSSARY LINKS
FirstGov 2020-Jan-17 19:45 UT
(server date/time)  
NASA Home Page
Site Manager:   Ryan S. Park
Webmaster  Alan B. Chamberlin